Location: Dal�� Lhota
(48.7500°N, 14.0167°E)
Time: 17:23:44
(UTC+00:00)

S-56A Canister/Altair - Pass Details

Date: 04 August 2021
Orbit: 632 x 2500 km, 38.9° (Epoch: 19 September)

Event Time Altitude Azimuth Distance (km) Brightness Sun altitude
Rises 19:43:11 0° 281° (W) 6,177 13.3 -9.8°
Reaches altitude 10° 19:48:45 10° 268° (W) 5,149 12.4 -10.5°
Maximum altitude 19:58:07 20° 228° (SW) 4,099 11.3 -11.7°
Drops below altitude 10° 20:06:28 10° 187° (S) 4,494 11.1 -12.6°
Enters shadow 20:09:50 - 175° (S) 5,002 11.2 -13.0°
